This demonstration page uses our WeatherBlox Daily Observations layout. Learn more.

38.89511, -77.03637

Hourly Observations for February 16, 2020

Temp ( °F °C ) Dew Point ( °F °C ) Humidity (%) Winds ( mph kmh ) Pressure ( in mb ) Visibility ( mi km ) Precip ( " mm )
12:52 am 00:52 Cloudy 34 1.1 21 -6.1 59 59 S 12 19 30.32 1027 10 16.0934 0 0
1:52 am 01:52 Cloudy 33 0.6 21 -6.1 61 61 S 10 17 30.31 1026 10 16.0934 0 0
2:52 am 02:52 Cloudy 33 0.6 21 -6.1 61 61 S 10 17 30.27 1025 10 16.0934 0 0
3:52 am 03:52 Cloudy 33 0.6 22 -5.6 64 64 SSW 9 15 30.26 1025 10 16.0934 0 0
4:52 am 04:52 Cloudy 33 0.6 23 -5 66 66 SSW 6 9 30.25 1024 10 16.0934 0 0
5:52 am 05:52 Cloudy 33 0.6 24 -4.4 70 70 S 7 11 30.24 1024 10 16.0934 0 0
6:52 am 06:52 Cloudy 33 0.6 23 -5 66 66 SSW 6 9 30.24 1024 10 16.0934 0 0
7:52 am 07:52 Cloudy 35 1.7 24 -4.4 64 64 S 8 13 30.24 1024 10 16.0934 0 0
8:52 am 08:52 Cloudy 36 2.2 25 -3.9 64 64 S 8 13 30.24 1024 10 16.0934 0 0
9:52 am 09:52 Cloudy 38 3.3 26 -3.3 62 62 S 7 11 30.21 1023 10 16.0934 0 0
10:52 am 10:52 Cloudy 40 4.4 27 -2.8 60 60 S 5 7 30.22 1023 10 16.0934 0 0
11:52 am 11:52 Cloudy 41 5 27 -2.8 57 57 ESE 3 6 30.19 1022 10 16.0934 0 0
12:52 pm 12:52 Mostly Cloudy 44 6.7 29 -1.7 55 55 SSE 7 11 30.16 1021 10 16.0934 0 0
1:52 pm 13:52 Mostly Cloudy 48 8.9 29 -1.7 48 48 S 8 13 30.12 1020 10 16.0934 0 0
2:52 pm 14:52 Mostly Cloudy 50 10 29 -1.7 44 44 S 8 13 30.11 1020 10 16.0934 0 0
3:52 pm 15:52 Mostly Cloudy 52 11.1 30 -1.1 43 43 S 9 15 30.09 1019 10 16.0934 0 0
4:52 pm 16:52 Mostly Cloudy 50 10 31 -0.6 48 48 S 10 17 30.09 1019 10 16.0934 0 0
5:52 pm 17:52 Cloudy 47 8.3 32 0 56 56 S 8 13 30.1 1019 10 16.0934 0 0
6:52 pm 18:52 Cloudy 47 8.3 33 0.6 59 59 S 7 11 30.1 1019 10 16.0934 0 0
7:52 pm 19:52 Mostly Cloudy 45 7.2 34 1.1 66 66 S 6 9 30.09 1019 10 16.0934 0 0
8:52 pm 20:52 Mostly Cloudy 45 7.2 31 -0.6 58 58 S 5 7 30.1 1019 10 16.0934 0 0
9:52 pm 21:52 Mostly Cloudy 42 5.6 35 1.7 76 76 SSE 3 6 30.11 1020 10 16.0934 0 0
10:52 pm 22:52 Cloudy 42 5.6 34 1.1 73 73 Calm 30.12 1020 10 16.0934 0 0
11:52 pm 23:52 Cloudy 42 5.6 37 2.8 82 82 Calm 30.12 1020 10 16.0934 0 0

Powered by AerisWeather